Regional Weather Roundup
Issued by NWS

Home | Current Version | Previous Version | Text Only | Print | Product List | Glossary Off
Versions: 1 2 3 4 5 6 7 8 9 10 11 12 13 14 15 16 17 18 19 20 21 22 23 24 25 26 27 28 29 30 31 32 33 34 35 36 37 38 39 40 41 42 43 44 45 46 47 48 49 50

000
ASUS43 KMKX 161921
RWRWI

WISCONSIN REGIONAL WEATHER ROUNDUP
NATIONAL WEATHER SERVICE MILWAUKEE/SULLIVAN WI
200 PM CDT TUE SEP 16 2014

NOTE: "FAIR" INDICATES FEW OR NO CLOUDS BELOW 12,000 FEET WITH NO
SIGNIFICANT WEATHER AND/OR OBSTRUCTIONS TO VISIBILITY.

WIZ001-002-006>008-014>016-023>028-162000-
NORTHWEST WISCONSIN

CITY           SKY/WX    TMP DP  RH WIND       PRES   REMARKS
SUPERIOR ARPT  SUNNY     69  43  38 W14G22    30.02F
ASHLAND        SUNNY     67  45  45 SW12G21   30.03F
HAYWARD        SUNNY     65  39  38 SW9G18    30.08F
SIREN          SUNNY     65  41  40 SW12G18   30.09F
RICE LAKE      SUNNY     65  40  40 S10G17    30.12F
LADYSMITH      SUNNY     64  43  45 SW10      30.12S
EAU CLAIRE     SUNNY     65  42  43 SW6       30.11F
MENOMONIE      CLEAR     66  38  36 S8        30.11F
NEW RICHMOND   SUNNY     65  40  39 SW10      30.11F
OSCEOLA        SUNNY     65  40  39 SW5       30.13F
$$

WIZ003>005-009-010-017-018-162000-
NORTH CENTRAL WISCONSIN

CITY           SKY/WX    TMP DP  RH WIND       PRES   REMARKS
WOODRUFF       SUNNY     64  41  42 W13       30.06F
RHINELANDER    SUNNY     64  40  41 W14G21    30.08F
EAGLE RIVER    SUNNY     64  37  36 W12       30.05F
LAND O LAKES   SUNNY     65  39  38 W9        30.05F
PHILLIPS       SUNNY     64  42  45 SW7       30.08F
TOMAHAWK       MOSUNNY   64  40  41 W5        30.09F
MEDFORD        SUNNY     62  41  46 W8        30.11F
MERRILL        PTSUNNY   64  42  45 W13G18    30.09F
$$

WIZ029-030-035-036-043>047-162000-
CENTRAL WISCONSIN

CITY           SKY/WX    TMP DP  RH WIND       PRES   REMARKS
WAUSAU         SUNNY     64  41  42 W12       30.09F
MOSINEE        SUNNY     63  43  48 SW12G21   30.12F
MARSHFIELD     SUNNY     64  42  44 SW12      30.12F
STEVENS POINT  SUNNY     61  40  45 W7        30.12F
WAUPACA        SUNNY     66  41  40 W7        30.12F
WAUTOMA        SUNNY     64  42  44 VRB7      30.13F
WISC RAPIDS    SUNNY     64  41  42 W9        30.13F
CAMP DOUGLAS   SUNNY     65  43  45 W3        30.13F
$$

WIZ011>013-019>022-031-037>040-048>050-162000-
NORTHEAST WISCONSIN

CITY           SKY/WX    TMP DP  RH WIND       PRES   REMARKS
ANTIGO         SUNNY     61  42  48 W13       30.09F
STURGEON BAY   SUNNY     63  39  42 W13       30.08F
GREEN BAY      SUNNY     64  43  46 W12       30.10F
MANITOWOC      SUNNY     62  42  47 W12       30.12F
APPLETON       SUNNY     63  39  42 W9        30.13F
CLINTONVILLE   SUNNY     64  39  39 W9G17     30.10F
OSHKOSH        SUNNY     62  42  47 SW6       30.13F
$$

WIZ032>034-041-042-053>061-162000-
SOUTHWEST WISCONSIN

CITY           SKY/WX    TMP DP  RH WIND       PRES   REMARKS
LA CROSSE      SUNNY     65  42  43 VRB6      30.14F
SPARTA         SUNNY     63  38  40 W5        30.15F
VIROQUA        FAIR      62  41  45 W8        30.15F
BOSCOBEL       SUNNY     66  43  43 MISG      30.16F
PRAIRIE DU CHI SUNNY     64  40  41 W5        30.14F
PLATTEVILLE    FAIR      62  43  50 W7        30.16F
$$

WIZ056-057-062-063-064-067-068-162000-
SOUTH CENTRAL WISCONSIN

CITY           SKY/WX    TMP DP  RH WIND       PRES   REMARKS
BARABOO/DELLS  PTSUNNY   63  39  41 SW6       30.14F
LONE ROCK      SUNNY     66  40  38 SW12      30.15F
WATERTOWN      MOSUNNY   62  42  48 W5        30.14F
MADISON        MOSUNNY   62  40  44 W6        30.15F
MIDDLETON      FAIR      64  42  44 W5        30.16F
MONROE         SUNNY     61  41  48 SW6       30.15F
JANESVILLE     SUNNY     63  37  39 NW7       30.15F
$$

WIZ051-052-058>065-066-070>072-162000-
SOUTHEAST WISCONSIN

CITY           SKY/WX    TMP DP  RH WIND       PRES   REMARKS
MILWAUKEE      MOSUNNY   63  38  39 NW8       30.15F
WAUKESHA       SUNNY     59  41  51 NW5       30.16F
MILWAUKEE/TIMM SUNNY     61  37  41 SW9       30.16F
RACINE         SUNNY     61  40  45 E7        30.16F
BURLINGTON     SUNNY     61  38  41 W8        30.15F
KENOSHA        SUNNY     62  41  46 CALM      30.15F
FOND DU LAC    SUNNY     62  40  44 NW6       30.13F
SHEBOYGAN      SUNNY     63  38  39 VRB6      30.13F
WEST BEND      SUNNY     61  37  41 SW8       30.14F
JUNEAU         SUNNY     60  41  49 W6        30.15F
$$

LSZ147-162-162000-
LAKE SUPERIOR

STATION/POSITION TIME  TEMP    WIND        PRES    WAVE
                       AIR SEA DIR/SP/G            HT/PER
                 (UTC) (F)     (DEG/KT/KT) (MB)    (FT/S)
W MID LAKE BUOY  1850   53 47  230/ 16/ 17 1014.7F   4/ 6
DEVILS ISLAND    1900   59     240/ 25/ 27 1015.4F
PORT WING        1800   64     260/ 11/ 15 1016.9F
SAXON HARBOR     1800   66     230/  8/ 11 1017.3F
$$

LMZ867-665-643>646-162000-
LAKE MICHIGAN

STATION/POSITION TIME  TEMP    WIND        PRES    WAVE
                       AIR SEA DIR/SP/G            HT/PER
                 (UTC) (F)     (DEG/KT/KT) (MB)    (FT/S)
N MID LAKE BUOY  1850   56 58  210/ 17/ 21 1017.8F   2/ 3
NORTHPORT PIER   1800   62     180/  5/ 13 1017.9F
KEWAUNEE LAKESHO 1900   62     260/  6/ 11 1018.3F
SHEBOYGAN LAKESH 1900   57 51  130/  6/  7 1020.7F
PORT WASHINGTON  1800   63     260/  5/  8 1021.7
ATWATER BUOY     1900   58     120/  6/  8 1021.7F
MILWAUKEE LAKESH 1900   57     120/  6/  7   N/A
S MID LAKE BUOY  1850   57 65  270/  8/ 12 1021.6F   1/ 4
KENOSHA   LAKESH 1900   58      80/  7/  9 1020.3F
$$

TC  - TEMPERATURE IN CELSIUS
VSB - VISIBILITY IN STATUTE MILES
WCI - WIND CHILL INDEX
HX  - HEAT INDEX



USA.gov is the U.S. government's official web portal to all federal, state and local government web resources and services.